sat.trackr.live / text

‹ back to catalog

STARLINK-11327 [DTC]

NORAD 61695 · 2024-195J

PAYLOAD ACTIVE UNKNOWN

§ Identity

Operator
Country
US
Launch date
2024-10-30
Launch site
AFWTR
Launch vehicle
Mass (kg)
RCS (m²)

Purposes: comms

External: N2YO · Heavens-Above · Gunter

§ Orbital elements

Epoch: 2026-09-21T20:18:37.534464Z

Period
91.74 min
Inclination
53.1593°
Eccentricity
0.0001207
Mean motion
15.69704005 rev/d
Perigee alt
358.9 km
Apogee alt
360.6 km
Semi-major
6,737.9 km
B*
8.1737e-7
RAAN
139.1735°
Arg perigee
80.9587°
Mean anomaly
279.1567°
Rev number
10,984

§ Raw data

STARLINK-11327 [DTC]1 61695U 24195J   26264.84626776 -.00000490  00000+0  81737-6 0  99992 61695  53.1593 139.1735 0001207  80.9587 279.1567 15.69704005109847

JSON: /api/v1/satellites/61695 · /tle

For live sub-satellite position, see the globe view (requires WebGL).

§ Visibility from observer

Set your observer location to see the next 7 days of passes ≥ 10°. The values pass through the URL so the page stays shareable.

No JS? Fill the form by hand. The geolocation button needs JavaScript.